Location: Del Oro Observatory
(38.3044°N, 104.8119°W)
Time: 08:12:51
(UTC-06:00)

Cosmos 1602 Rocket - Visible Passes

Search period start: 30 August 2014 00:00
Search period end: 09 September 2014 00:00
Orbit: 605 x 636 km, 82.5° (Epoch: 30 August)

Date Brightness Start Highest point End Pass type
(mag) Time Alt. Az. Time Alt. Az. Time Alt. Az.
02 Sep 6.7 05:27:49 10° ESE 05:30:27 16° E 05:33:05 10° NE visible
03 Sep 5.8 05:44:13 10° SSE 05:48:03 30° E 05:51:51 10° NNE visible
04 Sep 4.3 06:01:25 10° S 06:05:44 59° E 06:10:02 10° NNE visible
06 Sep 6.5 05:00:56 10° SE 05:03:48 17° E 05:06:40 10° NE visible
07 Sep 5.4 05:17:30 10° SSE 05:21:24 33° E 05:25:19 10° NNE visible
08 Sep 4.0 05:34:46 10° S 05:39:06 66° E 05:43:26 10° NNE visible
